Location: Diaratou
(13.0219°N, 4.8837°W)
Time: 09:27:01
(UTC+00:00)

Daily predictions for brighter satellites

Satellite Brightness Start Highest point End
(mag) Time Altitude Azimuth Time Altitude Azimuth Time Altitude Azimuth
Okean 1-7 4.4 19:01:51 10° SE 19:04:55 19° E 19:07:57 10° NE
CSL-04 Rocket 4.3 19:00:38 10° SE 19:05:39 39° ENE 19:10:43 10° N
H-2A R/B 3.7 19:03:03 10° ESE 19:05:42 14° ENE 19:08:22 10° NE
STARLINK-1163 3.6 19:03:37 10° NNW 19:07:44 71° NE 19:11:51 10° SE
Cosmos 2233 Rocket 4.1 19:02:46 10° N 19:08:57 87° W 19:15:13 10° S
STARLINK-1172 3.6 19:08:35 10° NNW 19:12:43 82° NE 19:16:50 10° SE
SWIFT 2.4 19:09:34 10° WSW 19:13:51 83° NNW 19:18:07 10° ENE
YAOGAN 1 2.5 19:09:55 10° SSE 19:14:12 69° ENE 19:18:29 10° N
STARLINK-1145 3.6 19:13:34 10° NW 19:17:41 86° SW 19:21:49 10° SSE
Meteor 1-5 Rocket 4.5 19:13:04 10° N 19:18:43 79° W 19:24:33 10° S
ASC 2 Rocket 4.0 19:15:30 10° SW 19:19:35 37° SSE 19:25:00 10° E
GPS 2-18 Rocket1 4.0 19:15:56 10° WNW 19:19:45 45° NNE 19:23:34 10° E
Cosmos 2056 Rocket 3.5 19:15:05 10° SSW 19:20:13 89° E 19:25:19 10° NNE
STARLINK-1161 3.8 19:18:32 10° NW 19:22:39 74° WSW 19:26:46 10° SSE
H-2A ROCKET BODY 1.2 19:21:31 10° SW 19:23:36 40° SE 19:28:15 10° ENE
Meteor 1-4 Rocket 3.8 19:22:24 11° SE 19:24:43 20° E 19:27:16 10° NE
STARLINK-1160 4.0 19:23:30 10° NW 19:27:34 63° SW 19:31:35 10° SSE
Cosmos 2251 Rocket 3.5 19:23:55 10° N 19:29:05 62° ENE 19:34:15 10° SSE
Cosmos 2242 Rocket 3.5 19:24:53 10° S 19:29:17 89° E 19:33:40 10° N
Cosmos 389 Rocket 2.5 19:26:27 10° S 19:29:52 77° W 19:33:18 10° N
Gbstr 26 Del rocket 4.4 19:23:57 10° NNW 19:31:55 76° NE 19:37:55 15° SE
STARLINK-1170 4.2 19:28:32 10° NW 19:32:34 54° SW 19:36:24 11° SSE
Okean 1 3.3 19:29:41 10° S 19:33:39 64° E 19:37:39 10° NNE
Cosmos 1939 Rocket 4.2 19:30:02 10° S 19:33:48 40° W 19:37:39 10° NNW
STARLINK-60 4.0 19:32:01 10° S 19:34:35 23° ESE 19:35:12 22° ESE
Cosmos 1733 Rocket 2.9 19:32:38 10° N 19:36:58 83° E 19:41:16 10° S
ARGOS 4.1 19:34:17 16° ESE 19:37:25 28° ENE 19:41:55 10° NNE
STARLINK-1150 4.5 19:33:35 10° NW 19:37:32 46° SW 19:41:12 12° SSE
NOSS 2-2 (E) 3.8 19:35:55 10° S 19:39:41 33° ESE 19:42:59 10° NE
Ariane H10-3 3.9 19:38:34 10° WSW 19:43:21 39° SSE 19:55:35 19° ESE
Ariane H10-3 4.0 19:38:34 10° WSW 19:43:22 39° SSE 19:55:34 19° ESE
Ariane H10-3 4.0 19:38:34 10° WSW 19:43:22 39° SSE 19:55:33 19° ESE
Tsikada Rocket 4.0 19:37:24 10° S 19:43:34 63° E 19:49:38 10° NNE
CZ-4 R/B 3.5 19:42:38 10° SSW 19:46:13 28° W 19:49:50 10° NW
Cosmos 1607 4.0 19:42:41 10° NNW 19:49:05 68° ENE 19:53:40 20° SE
Meteor 1-18 Rocket 4.1 19:43:41 10° S 19:49:13 86° E 19:54:48 10° N
CZ-2C R/B 3.3 19:45:56 17° SSE 19:49:56 54° ENE 19:55:19 10° N
Cosmos 1420 Rocket 3.9 19:45:00 10° S 19:50:14 84° ESE 19:55:26 10° NNE
Cosmos 1452 Rocket 3.6 19:45:26 10° S 19:50:31 51° ESE 19:55:36 10° NNE
Cosmos 332 Rocket 4.4 19:46:47 11° SSE 19:50:59 35° E 19:55:25 10° NE
Hubble Space Telescope 3.1 19:49:17 10° NNW 19:51:51 16° NNE 19:54:25 10° NE
CZ-2C R/B 2.8 19:47:49 10° NNE 19:53:16 51° ESE 19:58:36 10° S
STARLINK-1157 2.8 19:53:29 10° NNW 19:56:41 81° NE 19:57:19 53° SE
Cosmos 1461 2.8 19:53:40 10° SSW 19:57:33 79° WNW 20:01:36 10° NNE
Cosmos 1743 3.1 19:56:24 10° NNE 19:59:56 39° E 20:00:03 38° E
Starlink 7 placeholder 3.6 19:57:41 10° SW 19:59:59 39° NW 20:01:34 15° NNE
Cosmos 407 Rocket 4.5 19:55:29 10° NNE 20:00:01 28° ENE 20:00:48 27° E
Okean 3 4.2 20:00:13 32° E 20:00:13 32° E 20:03:54 10° NNE
SJ-6B 3.9 20:00:35 26° ENE 20:00:35 26° ENE 20:03:17 10° NNE
Cosmos 614 Rocket 4.5 19:56:19 10° N 20:01:03 38° ENE 20:02:18 33° ESE
ASTEX 1 3.6 19:59:58 30° SE 20:02:03 50° E 20:06:46 10° N
USA 267 3.3 19:58:37 25° SE 20:02:38 70° NE 20:09:07 10° NNW
ARIANE 5 DEB (SYLDA) 4.3 19:59:15 10° WSW 20:02:56 28° S 20:03:36 26° SSE
Cosmos 1703 Rocket 4.5 19:59:05 10° SSW 20:03:15 48° W 20:07:25 10° N
NOSS 2-2 (C) 3.2 20:00:08 10° SSW 20:04:18 55° ESE 20:07:50 10° NE
STARLINK-1169 4.3 20:00:59 10° NNW 20:04:49 37° NE 20:05:21 35° ENE
Cosmos 2221 Rocket 4.1 20:08:00 39° E 20:08:00 39° E 20:12:02 10° NNE
GPS 2-12 Rocket1 4.4 20:03:56 10° WNW 20:07:57 33° N 20:10:30 18° NE
STARLINK-1178 4.1 20:05:53 10° NNW 20:09:48 42° NE 20:10:09 41° ENE
GPS 2-14 Rocket1 3.1 20:06:23 10° SW 20:10:11 45° S 20:10:11 45° S
DMSP B5D2-2 4.0 20:05:20 10° NNE 20:10:36 87° E 20:15:51 10° SSW
Ariane 3 Deb 4.3 19:35:00 10° W 20:11:36 62° S 20:14:46 34° SE
Cosmos 1782 Rocket 4.5 20:10:33 10° NNE 20:13:52 33° ENE 20:13:52 33° ENE
STARLINK-1120 3.9 20:10:45 10° NNW 20:14:45 49° NE 20:14:54 49° ENE
MOS 1 Rocket 3.6 20:11:39 10° N 20:15:49 58° WNW 20:20:04 10° SSW
STARLINK-1131 3.7 20:15:40 10° NNW 20:19:41 57° NE 20:19:41 57° NE
Cosmos 44 Rocket 3.6 20:17:45 10° NNW 20:22:42 64° WSW 20:24:28 39° S
Cosmos 2278 Rocket 4.5 20:18:38 10° SW 20:23:09 24° WNW 20:27:40 10° NNW
STARLINK-1190 3.7 20:20:38 10° NNW 20:24:30 65° NNE 20:24:30 65° NNE
Resurs 01 Rocket 3.9 20:28:14 12° NE 20:28:14 12° NE 20:28:51 10° NNE
Cosmos 1190 Rocket 4.4 20:24:04 10° N 20:28:46 46° ENE 20:28:46 46° ENE
STARLINK-1129 3.7 20:25:32 10° NNW 20:29:15 68° N 20:29:15 68° N
Centaur AC-42 3.7 20:25:27 10° W 20:29:58 41° S 20:33:01 33° SSE
Cosmos 1908 Rocket 4.1 20:28:06 10° NNW 20:32:29 56° W 20:33:41 41° SW
STARLINK-1134 3.9 20:30:30 10° NW 20:34:02 64° NW 20:34:02 64° NW
Ariane Rocket 3.4 20:33:01 35° SSW 20:34:57 58° WSW 20:39:56 10° NNW
SPOT 3 Rocket 4.1 20:36:51 42° NE 20:36:51 42° NE 20:40:53 10° N
SL-4 R/B 3.0 20:33:29 10° SW 20:37:46 53° NW 20:42:21 10° NNE
Centaur Rocket 3.5 20:32:28 10° WSW 20:38:25 53° SW 20:38:25 53° SW
STARLINK-1135 4.2 20:35:30 10° NW 20:38:50 56° NW 20:38:50 56° NW
SL-08 RB Rocket 4.0 20:44:23 63° WSW 20:44:27 63° WSW 20:49:00 10° NNW
STARLINK-1141 4.5 20:40:30 10° NW 20:43:37 48° WNW 20:43:37 48° WNW
H-2A R/B 3.4 20:42:11 21° SSW 20:44:45 33° W 20:49:16 10° NW
Milstar 3 Cent rocket 3.4 20:39:59 10° WSW 20:46:20 72° NNW 20:59:40 10° ENE
MetOp-A 4.2 20:54:47 74° NNW 20:54:47 74° NNW 20:59:38 10° NNW
SWIFT 3.9 20:51:59 10° WNW 20:55:08 33° NW 20:55:08 33° NW
Aureole 1 Rocket 4.2 21:02:18 10° NNW 21:08:16 70° WSW 21:08:45 68° SW
Cosmos 1634 Rocket 4.2 21:10:00 10° N 21:15:47 67° WNW 21:15:47 67° WNW
ASC 2 Rocket 4.4 21:16:24 10° W 21:20:56 58° WNW 21:20:56 58° WNW
Cosmos 1943 Rocket 4.4 21:31:47 17° N 21:31:47 17° N 21:32:55 10° NNE
Hubble Space Telescope 3.9 21:29:21 10° NW 21:29:47 13° NW 21:29:47 13° NW
COSMOS 2406 4.5 21:28:19 10° NNW 21:32:03 37° NW 21:32:03 37° NW
Cosmos 1833 Rocket 4.4 21:39:21 10° NNW 21:41:52 28° NNW 21:41:52 28° NNW
Cosmos 2082 Rocket 4.3 21:46:11 10° N 21:47:53 20° N 21:47:53 20° N
H-2A R/B 3.9 21:50:22 10° WNW 22:33:41 - SE 21:52:06 31° WNW
ATLAS 2AS CENTAUR R/B 4.4 22:00:30 29° NNE 22:00:30 29° NNE 22:03:55 10° NNE
